Header for Extended Forecast Station List Page

Search by: ID | Name | Date | Parm | Value | Avg | % Avg
Sort by: ID | Name | Date | Parm | Value | Avg | % Avg

Enter search or view all records.

Click on id for station plot
#IDNameDateParmValueAvg% Avg
0LWRI1LITTLE WOOD-LITTLE WOOD DAM11-30-2020INFLOW (KAF)101759
1RIDI1WILLOW CREEK-RIRIE DAM11-30-2020INFLOW (KAF)1310129
2BERO3MALHEUR-AGENCY VALLEY DAM11-30-2020INFLOW (KAF)132845
3DEDI1DEADWOOD-NEAR LOWMAN11-30-2020INFLOW (KAF)131967
4HWRI1BIG LOST-AT HOWELL RANCH NEAR CHILLY11-30-2020DISCHARGE (KAF)141977
5HOTI1BRUNEAU-NEAR HOT SPRINGS11-30-2020DISCHARGE (KAF)193850
6BULO3BULLY CREEK-BULLY CREEK DAM11-30-2020INFLOW (KAF)197263
7BUDW1BUMPING-BUMPING LAKE DAM11-30-2020INFLOW (KAF)203854
8WRMO3MALHEUR-WARM SPRINGS DAM11-30-2020INFLOW (KAF)215141
9STRM8ST. REGIS-NEAR ST. REGIS11-30-2020DISCHARGE (KAF)225043
10ARDW1ENTIAT-NEAR ARDENVOIR11-30-2020DISCHARGE (KAF)2323100
11SATI1ST MARIES-NEAR SANTA11-30-2020DISCHARGE (KAF)266342
12MACI1BIG LOST-MACKAY RESERVOIR NEAR MACKAY11-30-2020INFLOW (KAF)264619
13MAGI1BIG WOOD-MAGIC DAM11-30-2020INFLOW (KAF)263772
14BIGI1BOISE-AT GLENWOOD BRIDGE11-30-2020DISCHARGE (KAF)294663
15HALI1BIG WOOD-AT HAILEY11-30-2020DISCHARGE (KAF)323785
16KEDW1YAKIMA-KEECHELUS LAKE11-30-2020INFLOW (KAF)395078
17KADW1KACHESS-KACHESS DAM11-30-2020INFLOW (KAF)404981
18MYKO3MCKAY CREEK-NEAR PILOT ROCK11-30-2020DISCHARGE (KAF)4231134
19TNAW1TEANAWAY-BELOW FORKS11-30-2020DISCHARGE (KAF)466175
20RILW1TIETON-RIMROCK LAKE NEAR RIMROCK11-30-2020INFLOW (KAF)487366
21PIHI1PORTNEUF-AT POCATELLO11-30-2020DISCHARGE (KAF)517370
22GIBO3UMATILLA-NEAR GIBBON11-30-2020DISCHARGE (KAF)5451106
23EASW1YAKIMA-AT EASTON11-30-2020DISCHARGE (KAF)588172
24RCCM8ROCK CREEK-NEAR CLINTON11-30-2020DISCHARGE (KAF)5946130
25ARAI1SF BOISE-ANDERSON RANCH DAM11-30-2020INFLOW (KAF)628970
26NACW1NACHES-NEAR NACHES11-30-2020DISCHARGE (KAF)6411556
27CLFW1NACHES-NEAR CLIFFDEL11-30-2020DISCHARGE (KAF)6812754
28DLGM8CLARK FORK-AT DEER LODGE11-30-2020DISCHARGE (KAF)7762124
29CLUW1CLE ELUM-CLE ELUM LAKE11-30-2020INFLOW (KAF)8110776
30CSDI1NF PAYETTE-CASCADE DAM11-30-2020INFLOW (KAF)8110577
31LUCI1BOISE-LUCKY PEAK DAM11-30-2020INFLOW (KAF)82MM
32TEAI1TETON-NEAR ST. ANTHONY11-30-2020DISCHARGE (KAF)879790
33PATW1METHOW-NEAR PATEROS11-30-2020DISCHARGE (KAF)889889
34JLKW4SNAKE-JACKSON LAKE AT DAM11-30-2020INFLOW (KAF)8811875
35IPDI1HENRYS FORK-ISLAND PARK DAM11-30-2020INFLOW (KAF)9011280
36CHEI1FALL RIVER-NEAR CHESTER11-30-2020DISCHARGE (KAF)10311094
37PRTI1PRIEST-NEAR PRIEST RIVER11-30-2020DISCHARGE (KAF)10921551
38LAUW1KETTLE-AT LAURIER11-30-2020DISCHARGE (KAF)10913183
39MONO3NF JOHN DAY-AT MONUMENT11-30-2020DISCHARGE (KAF)12123052
40PDTO3UMATILLA-AT PENDLETON11-30-2020DISCHARGE (KAF)13213399
41CHDW1CHELAN-LAKE CHELAN DAM11-30-2020INFLOW (KAF)13317078
42OWYO3OWYHEE-OWYHEE DAM11-30-2020INFLOW (KAF)14315592
43TCHW1WALLA WALLA-NEAR TOUCHET11-30-2020DISCHARGE (KAF)15218781
44WGCM8MF FLATHEAD-NEAR WEST GLACIER11-30-2020DISCHARGE (KAF)153150102
45DRMM8CLARK FORK-NR DRUMMOND11-30-2020DISCHARGE (KAF)155MM
46UMAO3UMATILLA-NEAR UMATILLA11-30-2020DISCHARGE (KAF)161136118
47FCFM8NF FLATHEAD-NEAR COLUMBIA FALLS11-30-2020DISCHARGE (KAF)16317096
48BONM8BLACKFOOT-NEAR BONNER11-30-2020DISCHARGE (KAF)178136131
49PARI1BOISE-NEAR PARMA11-30-2020DISCHARGE (KAF)17822579
50WSRI1WEISER-NEAR WEISER11-30-2020DISCHARGE (KAF)187181104
51HHWM8SF FLATHEAD-HUNGRY HORSE DAM11-30-2020INFLOW (KAF)21624090
52UNDW1WHITE SALMON-NEAR UNDERWOOD11-30-2020DISCHARGE (KAF)21730172
53SERO3JOHN DAY-AT SERVICE CK11-30-2020DISCHARGE (KAF)21838157
54UMTW1YAKIMA-AT UMTANUM11-30-2020DISCHARGE (KAF)23332273
55PESW1WENATCHEE-AT PESHASTIN11-30-2020DISCHARGE (KAF)23631974
56BITM8BITTERROOT-NEAR MISSOULA11-30-2020DISCHARGE (KAF)238225106
57TONW1OKANOGAN-NEAR TONASKET11-30-2020DISCHARGE (KAF)25629288
58HODO3HOOD-NEAR TUCKER BRIDGE11-30-2020DISCHARGE (KAF)26027694
59JKSW4SNAKE-NEAR JACKSON11-30-2020DISCHARGE (KAF)26830289
60EMMI1PAYETTE-NEAR EMMETT11-30-2020DISCHARGE (KAF)28943067
61ANTI1HENRYS FORK-AT ST. ANTHONY11-30-2020DISCHARGE (KAF)31134690
62PITW1KLICKITAT-NEAR PITT11-30-2020DISCHARGE (KAF)31238182
63ALPW4SNAKE-NEAR ALPINE11-30-2020DISCHARGE (KAF)32037186
64TRYO3GRANDE RONDE-TROY11-30-2020DISCHARGE (KAF)33147370
65REXI1HENRYS FORK-AT REXBURG11-30-2020DISCHARGE (KAF)36943286
66PARW1YAKIMA-NEAR PARKER11-30-2020DISCHARGE (KAF)37057664
67ABOM8CLARK FORK-ABOVE MISSOULA11-30-2020DISCHARGE (KAF)408342119
68HEII1SNAKE-NEAR HEISE11-30-2020DISCHARGE (KAF)46156182
69PLDI1SF SNAKE-PALISADES DAM11-30-2020INFLOW (KAF)52459788
70KIOW1YAKIMA-AT KIONA11-30-2020DISCHARGE (KAF)54184264
71ORFI1CLEARWATER-AT OROFINO11-30-2020DISCHARGE (KAF)54694258
72SNAI1SNAKE-AT BLACKFOOT11-30-2020DISCHARGE (KAF)55875674
73BFTI1SNAKE-NEAR BLACKFOOT11-30-2020DISCHARGE (KAF)56480071
74SHYI1SNAKE-NEAR SHELLEY11-30-2020DISCHARGE (KAF)62982576
75BELM8CLARK FORK-BELOW MISSOULA11-30-2020DISCHARGE (KAF)646576112
76DWRI1NF CLEARWATER-DWORSHAK DAM11-30-2020INFLOW (KAF)65572890
77SIFI1SNAKE-AB EAGLE ROCK NR IDAHO FALLS11-30-2020DISCHARGE (KAF)68681085
78SPOW1SPOKANE-AT SPOKANE11-30-2020DISCHARGE (KAF)701MM
79COEI1COEUR D ALENE-COEUR D ALENE LAKE11-30-2020INFLOW (KAF)761110169
80LYDM8KOOTENAI-LIBBY DAM11-30-2020INFLOW (KAF)77178798
81SRGM8CLARK FORK-AT ST REGIS11-30-2020DISCHARGE (KAF)781774101
82CFMM8FLATHEAD-AT COLUMBIA FALLS11-30-2020DISCHARGE (KAF)889115077
83LLKW1SPOKANE-AT LONGLAKE11-30-2020INFLOW (KAF)958161859
84WHBI1SALMON-AT WHITEBIRD11-30-2020DISCHARGE (KAF)1014108494
85KERM8FLATHEAD-SELI’Š KSANKA QLISPE’ DAM11-30-2020INFLOW (KAF)1048151069
86MODO3DESCHUTES-AT MOODY NR BIGGS11-30-2020DISCHARGE (KAF)1170154876
87AFRI1SNAKE-AMERICAN FALLS RESERVOIR11-30-2020INFLOW (KAF)1209152179
88SWAI1SNAKE-BELOW SWAN FALLS11-30-2020DISCHARGE (KAF)1721268164
89SPDI1CLEARWATER-AT SPALDING11-30-2020DISCHARGE (KAF)2052211697
90LEOI1KOOTENAI-AT LEONIA11-30-2020DISCHARGE (KAF)22031310168
91WEII1SNAKE-AT WEISER11-30-2020DISCHARGE (KAF)2672408265
92NOXM8CLARK FORK-NOXON RAPIDS DAM11-30-2020INFLOW (KAF)2826372076
93BRNI1SNAKE-BROWNLEE DAM11-30-2020INFLOW (KAF)2914426768
94CABI1CLARK FORK-CABINET GORGE DAM11-30-2020INFLOW (KAF)3121390080
95ALFW1PEND OREILLE-ALBENI FALLS DAM11-30-2020INFLOW (KAF)3419459174
96ANAW1SNAKE-NEAR ANATONE11-30-2020DISCHARGE (KAF)4509654269
97LGDW1SNAKE-LOWER GRANITE DAM11-30-2020INFLOW (KAF)6562880075
98LGSW1SNAKE-LITTLE GOOSE DAM11-30-2020INFLOW (KAF)6564886674
99LMNW1SNAKE-LOWER MONUMENTAL DAM11-30-2020INFLOW (KAF)6890907976
100IHDW1SNAKE-ICE HARBOR DAM11-30-2020INFLOW (KAF)6893901776
101CIBW1COLUMBIA-AT INTL BOUNDARY11-30-2020DISCHARGE (KAF)21437MM
102GCDW1COLUMBIA-GRAND COULEE DAM11-30-2020INFLOW (KAF)2254817143132
103CHJW1COLUMBIA-CHIEF JOSEPH DAM11-30-2020INFLOW (KAF)2473622992108
104WELW1COLUMBIA-WELLS DAM11-30-2020INFLOW (KAF)2508123398107
105RRHW1COLUMBIA-ROCKY REACH DAM11-30-2020INFLOW (KAF)2546223958106
106WANW1COLUMBIA-WANAPUM DAM11-30-2020INFLOW (KAF)2577920954123
107PRWW1COLUMBIA-PRIEST RAPIDS DAM11-30-2020INFLOW (KAF)2578421250121
108MCDW1COLUMBIA-MCNARY DAM11-30-2020INFLOW (KAF)3330632544102
109JDAO3COLUMBIA-JOHN DAY DAM11-30-2020INFLOW (KAF)3481634154102
110TDAO3COLUMBIA-THE DALLES DAM11-30-2020INFLOW (KAF)351983861391
111BONO3COLUMBIA-BONNEVILLE DAM11-30-2020INFLOW (KAF)359694115887
112BFEI1KOOTENAI-AT BONNERS FERRY11-30-2020STAGE (FT)MMM
113HOPI1PEND OREILLE-PEND OREILLE LAKE NR HOPE11-30-2020LAKE ELEVATION (FT)MMM
114SJMI1ST JOE-AT ST MARIES11-30-2020STAGE (FT)MMM
115MILI1SNAKE-AT MILNER11-30-2020DISCHARGE (KAF)M711M